Regional Weather Roundup
Issued by NWS

Home | Current Version | Previous Version | Text Only | Print | Product List | Glossary Off
Versions: 1 2 3 4 5 6 7 8 9 10 11 12 13 14 15 16 17 18 19 20 21 22 23 24 25 26 27 28 29 30 31 32 33 34 35 36 37 38 39 40 41 42 43 44 45 46 47

000
ASUS45 KTFX 290110
RWRMT
MONTANA REGIONAL WEATHER ROUNDUP
NATIONAL WEATHER SERVICE GREAT FALLS MT
700 PM MDT THU MAY 28 2015

NOTE: "FAIR" INDICATES FEW OR NO CLOUDS BELOW 12000 FEET WITH NO
SIGNIFICANT WEATHER AND/OR OBSTRUCTIONS TO VISIBILITY.

MTZ001>007-043-290200-
WEST OF THE DIVIDE

CITY           SKY/WX    TMP DP  RH WIND       PRES   REMARKS
KALISPELL      PTCLDY    66  42  41 NE21      30.14R
MISSOULA       MOSUNNY   64  51  62 CALM      30.15S
BUTTE          CLOUDY    53  45  74 NW6       30.23R
MULLAN PASS    CLOUDY    52  41  66 E6        30.23R
DEER LODGE       N/A     55  46  71 N9        30.27R
EUREKA           N/A     64  46  52 NW12      30.17R
HAMILTON         N/A     64  46  52 S6        30.16S
LIBBY            N/A     55  52  88 CALM      30.18R
PLAINS           N/A     69  51  52 N2        30.11R
RONAN            N/A     66  55  67 CALM      30.17S
THOMPSON FALLS   N/A     68  53  58 SW5       30.15R
$$

MTZ008-052>055-290200-
SOUTHWEST MONTANA

CITY           SKY/WX    TMP DP  RH WIND       PRES   REMARKS
BOZEMAN        CLOUDY    52  48  86 SE5       30.20S
DILLON         CLOUDY    56  45  66 VRB3      30.20R
W YELLOWSTONE  PTSUNNY   50  39  66 N5        30.21R
THREE FORKS      N/A     59  30  33 N10       30.17R
$$

MTZ009-010-012-014-046-048-049-054-290200-
EAST SLOPES AND CENTRAL MONTANA

CITY           SKY/WX    TMP DP  RH WIND       PRES   REMARKS
CUT BANK       CLOUDY    46  43  89 N16       30.30R FOG
GREAT FALLS    CLOUDY    49  48  97 N14       30.24R
MALMSTROM AFB  CLOUDY    51  49  93 N16G24    30.25R
HELENA         CLOUDY    54  46  74 NW20      30.22R
CONRAD           N/A     48  48 100 NW12      30.29R
$$

MTZ011-013-016-021-045-047-050-051-290200-
NORTH CENTRAL MONTANA

CITY           SKY/WX    TMP DP  RH WIND       PRES   REMARKS
HAVRE          CLOUDY    53  45  74 N13       30.23R
LEWISTOWN      CLOUDY    54  50  86 NW9       30.19R
N BAR RANCH    CLOUDY    52  50  93 NW17G25   30.18R
CHINOOK          N/A     54  45  71 N8        30.23R
FORT BENTON      N/A     54  46  76 NW12G20   30.24R
$$

MTZ017>020-022>027-061-062-290200-
NORTHEAST MONTANA

CITY           SKY/WX    TMP DP  RH WIND       PRES   REMARKS
GLASGOW        PTSUNNY   57  49  74 N13G25    30.10R
JORDAN           N/A     57  53  86 NE16G25   30.07R
SIDNEY         PTSUNNY   64  48  55 N22G28    29.98R
WOLF POINT     CLOUDY    60  52  74 N21G28    30.06R
MALTA            N/A     55  45  69 N14       30.12R
PLENTYWOOD       N/A     55  46  71 N22G32    30.05R
POPLAR           N/A     59  50  72 N22       30.04R
SCOBEY           N/A     53  42  66 N21       30.09R
$$

MTZ028>42-056>058-290200-
SOUTHCENTRAL AND SOUTHEAST MONTANA

CITY           SKY/WX    TMP DP  RH WIND       PRES   REMARKS
BAKER          PTSUNNY   69  52  54 N14       29.94R
BILLINGS       TSTM      56  51  84 NW14      30.13R
LIVINGSTON     HVY RAIN  50  45  83 E5        30.21R
MILES CITY     LGT RAIN  68  52  56 N20G29    29.97R
BIG TIMBER       N/A     50  46  87 W3        30.21R
EKALAKA          N/A     64  50  60 W12       29.96R
LAUREL           N/A     57  48  72 NW1       30.12R
ROUNDUP          N/A     58  47  66 NW18      30.02R
$$

REGIONAL REPORTS...DAKOTAS

CITY           SKY/WX    TMP DP  RH WIND       PRES   REMARKS
WILLISTON      PTSUNNY   63  51  65 N25G35    29.98R
MINOT          MOSUNNY   68  53  58 N17       29.88R
DICKINSON      CLOUDY    67  55  65 N8        29.89R
BEACH          FAIR      68  50  52 N15       29.94R
CROSBY         FAIR      55  55 100 N29G35    30.02R
WATFORD CITY   MOCLDY    64  54  68 N22G33    29.92R
BISMARCK       CLOUDY    73  56  54 N9        29.86R
GRAND FORKS    CLOUDY    66  63  90 E8        29.79R
FARGO          CLOUDY    65  59  81 S8        29.78S
BUFFALO SD       N/A     59  55  87 S6        29.89R
RAPID CITY     CLOUDY    59  54  83 NW16G22   29.96R
$$

REGIONAL REPORTS...WYOMING/IDAHO/WASHINGTON

CITY           SKY/WX    TMP DP  RH WIND       PRES   REMARKS
GILLETTE       CLOUDY    57  48  72 N10       30.04S
SHERIDAN       PTSUNNY   59  46  62 N5        30.08R
BUFFALO WY     CLOUDY    55  46  71 N18G26    30.10R
CODY           CLOUDY    54  45  71 N13       30.14R
YELLOWSTONE LA   N/A     45  38  76 MISG      30.25R
IDAHO FALLS    PTSUNNY   61  47  59 N9        30.15R
SALMON         CLOUDY    61  45  55 N8        30.15R
BOISE          SUNNY     78  42  27 NW8       30.02S
SPOKANE        PTSUNNY   74  50  42 N12       30.05R
$$

REGIONAL REPORTS...ALBERTA

CITY           SKY/WX    TMP DP  RH WIND       PRES   REMARKS
EDMONTON       SUNNY     55  21  26 N7        30.29S
CALGARY        CLOUDY    52  39  62 E5        30.29F
LETHBRIDGE     CLOUDY    50  43  76 N5        30.31R
MEDICINE HAT   MOSUNNY   57  36  44 N13       30.25S
$$

REGIONAL REPORTS...SASKATCHEWAN

CITY           SKY/WX    TMP DP  RH WIND       PRES   REMARKS
SWIFT CURRENT  SUNNY     54  28  37 N18G28    30.18R
REGINA         MOSUNNY   52  37  58 N17G29    30.14R
SASKATOON      MOSUNNY   54  27  35 NE17      30.24R
$$



USA.gov is the U.S. government's official web portal to all federal, state and local government web resources and services.